This demonstration page uses our WeatherBlox Daily Observations layout. Learn more.

Left ArrowRight Arrow

Hourly Observations for October 28, 2020

Temp ( °F °C ) Dew Point ( °F °C ) Humidity (%) Winds ( mph kmh ) Pressure ( in mb ) Visibility ( mi km ) Precip ( " mm )
12:01 am 00:01 Cloudy 31 -0.6 29 -1.7 92 92 W 8 13 30.27 1025 10 16 0.00 0.00
12:21 am 00:21 Cloudy 31 -0.6 29 -1.7 92 92 WNW 7 11 30.26 1025 10 16 0.00 0.00
12:53 am 00:53 Cloudy 31 -0.6 28 -2.2 89 89 WNW 9 15 30.16 1021 10 16 0.00 0.00
1:49 am 01:49 Cloudy 30 -1 28 -2 93 93 WNW 8 13 30.25 1024 10 16 0.00 0.00
1:53 am 01:53 Cloudy 31 -0.6 28 -2.2 89 89 WNW 7 11 30.15 1021 10 16 0.00 0.00
2:13 am 02:13 Cloudy 31 -0.6 28 -2.2 89 89 WNW 9 15 30.24 1024 10 16 0.00 0.00
2:53 am 02:53 Cloudy 31 -0.6 28 -2.2 89 89 WNW 9 15 30.15 1021 9 14 0.00 0.00
3:53 am 03:53 Cloudy 31 -0.6 28 -2.2 89 89 NW 7 11 30.12 1020 10 16 0.00 0.00
4:53 am 04:53 Clear 29 -1.7 27 -2.8 92 92 W 8 13 30.10 1019 10 16 0.00 0.00
5:53 am 05:53 Clear 28 -2.2 26 -3.3 92 92 WSW 6 9 30.08 1019 10 16 0.00 0.00
6:53 am 06:53 Clear 27 -2.8 25 -3.9 92 92 W 5 7 30.10 1019 10 16 0.00 0.00
7:53 am 07:53 Clear 25 -3.9 22 -5.6 88 88 Calm 30.09 1019 10 16 0.00 0.00
8:53 am 08:53 Mostly Cloudy 28 -2.2 26 -3.3 92 92 WSW 5 7 30.09 1019 10 16 0.00 0.00
9:53 am 09:53 Sunny 31 -0.6 27 -2.8 85 85 W 7 11 30.08 1019 10 16 0.00 0.00
10:53 am 10:53 Sunny 36 2.2 29 -1.7 76 76 W 13 20 30.06 1018 10 16 0.00 0.00
11:53 am 11:53 Sunny 41 5 28 -2.2 60 60 W 15 24 30.04 1017 10 16 0.00 0.00
12:53 pm 12:53 Sunny 45 7.2 29 -1.7 54 54 W 14 22 30.02 1017 10 16 0.00 0.00
1:53 pm 13:53 Sunny 49 9.4 30 -1.1 48 48 W 15 24 29.98 1015 10 16 0.00 0.00
2:53 pm 14:53 Sunny 52 11.1 28 -2.2 40 40 WNW 17 28 29.95 1014 10 16 0.00 0.00
3:53 pm 15:53 Sunny 55 12.8 28 -2.2 35 35 NW 18 30 29.93 1014 10 16 0.00 0.00
4:53 pm 16:53 Mostly Sunny 54 12.2 29 -1.7 38 38 NW 23 37 29.95 1014 10 16 0.00 0.00
5:53 pm 17:53 Sunny 52 11.1 31 -0.6 45 45 NNW 22 35 29.98 1015 10 16 0.00 0.00
6:53 pm 18:53 Sunny 49 9.4 31 -0.6 50 50 NW 20 31 29.99 1016 10 16 0.00 0.00
7:53 pm 19:53 Clear 47 8.3 32 0 56 56 NW 15 24 30.01 1016 10 16 0.00 0.00
8:53 pm 20:53 Clear 45 7.2 32 0 61 61 NW 8 13 30.03 1017 10 16 0.00 0.00
9:53 pm 21:53 Clear 41 5 32 0 70 70 W 9 15 30.07 1018 10 16 0.00 0.00
10:53 pm 22:53 Clear 45 7.2 33 0.6 63 63 W 10 17 30.05 1018 10 16 0.00 0.00
11:53 pm 23:53 Partly Cloudy 44 6.7 33 0.6 65 65 W 12 19 30.07 1018 10 16 0.00 0.00

Powered by AerisWeather